When you browse on this site, cookies collect data to enhance your experience and personalize the content and advertising you see.
Visit our Privacy Policy to learn more. By continuing to use the site, you agree to this use of cookies and data.
  • In Österreich
  • Länderverzeichnis
  • Für 7 Tage
  • Wassertemperatur
  • Wetterkarte
  • News
  • Widgets
  • user-avatar
    Anmelden

    Stündliche Wetter Tepeji de Ocampo

    Heute, 17 August, Samstag

    Zeit Temperatur Niederschläge Wind Luftdruck Luftfeuchtigkeit
    00:00 +15°C° 0.2 mm 1 m/S 589 mmHg 90%
    01:00 +15°C° 0.2 mm 1 m/S 588 mmHg 90%
    02:00 +13°C° 0.2 mm 0 m/S 588 mmHg 90%
    03:00 +13°C° 0 mm 0 m/S 588 mmHg 90%
    04:00 +13°C° 0 mm 0 m/S 588 mmHg 90%
    05:00 +13°C° 0 mm 0 m/S 587 mmHg 90%
    06:00 +15°C° 0 mm 0 m/S 589 mmHg 83%
    07:00 +17°C° 0 mm 0 m/S 590 mmHg 76%
    08:00 +19°C° 0 mm 0 m/S 591 mmHg 69%
    09:00 +22°C° 0.1 mm 1 m/S 591 mmHg 64%
    10:00 +24°C° 0.1 mm 1 m/S 591 mmHg 59%
    11:00 +25°C° 0.1 mm 2 m/S 592 mmHg 55%
    12:00 +26°C° 0.1 mm 2 m/S 591 mmHg 52%
    13:00 +26°C° 0.1 mm 3 m/S 591 mmHg 49%
    14:00 +27°C° 0.1 mm 3 m/S 591 mmHg 46%
    15:00 +26°C° 0.2 mm 3 m/S 590 mmHg 52%
    16:00 +25°C° 0.2 mm 4 m/S 589 mmHg 59%
    17:00 +22°C° 0.2 mm 4 m/S 589 mmHg 65%
    18:00 +21°C° 0.3 mm 3 m/S 589 mmHg 73%
    19:00 +19°C° 0.3 mm 2 m/S 588 mmHg 80%
    20:00 +18°C° 0.3 mm 1 m/S 588 mmHg 87%
    21:00 +16°C° 0 mm 1 m/S 588 mmHg 88%
    22:00 +15°C° 0 mm 0 m/S 588 mmHg 88%
    23:00 +14°C° 0 mm 0 m/S 588 mmHg 89%

    Morgen, 18 August, Sonntag

    Zeit Temperatur Niederschläge Wind Luftdruck Luftfeuchtigkeit
    00:00 +14°C° 0 mm 0 m/S 588 mmHg 89%
    01:00 +14°C° 0 mm 0 m/S 587 mmHg 89%
    02:00 +13°C° 0 mm 0 m/S 587 mmHg 89%
    03:00 +13°C° 0 mm 0 m/S 587 mmHg 89%
    04:00 +13°C° 0 mm 0 m/S 587 mmHg 88%
    05:00 +13°C° 0 mm 0 m/S 587 mmHg 88%
    06:00 +15°C° 0 mm 0 m/S 588 mmHg 82%
    07:00 +17°C° 0 mm 0 m/S 589 mmHg 75%
    08:00 +19°C° 0 mm 0 m/S 590 mmHg 69%
    09:00 +22°C° 0 mm 1 m/S 590 mmHg 61%
    10:00 +24°C° 0 mm 2 m/S 591 mmHg 54%
    11:00 +25°C° 0 mm 2 m/S 591 mmHg 46%
    12:00 +26°C° 0 mm 3 m/S 591 mmHg 45%
    13:00 +26°C° 0 mm 4 m/S 590 mmHg 44%
    14:00 +27°C° 0 mm 4 m/S 590 mmHg 43%
    15:00 +26°C° 0 mm 4 m/S 589 mmHg 49%
    16:00 +23°C° 0 mm 4 m/S 589 mmHg 56%
    17:00 +22°C° 0 mm 4 m/S 588 mmHg 62%
    18:00 +20°C° 0.4 mm 3 m/S 588 mmHg 71%
    19:00 +19°C° 0.4 mm 2 m/S 588 mmHg 80%
    20:00 +17°C° 0.4 mm 2 m/S 588 mmHg 89%
    21:00 +16°C° 0.1 mm 1 m/S 588 mmHg 91%
    22:00 +16°C° 0.1 mm 1 m/S 588 mmHg 93%
    23:00 +15°C° 0.1 mm 1 m/S 588 mmHg 94%

    übermorgen, 19 August, Montag

    Zeit Temperatur Niederschläge Wind Luftdruck Luftfeuchtigkeit
    00:00 +14°C° 0 mm 0 m/S 587 mmHg 95%
    01:00 +14°C° 0 mm 0 m/S 587 mmHg 95%
    02:00 +13°C° 0 mm 0 m/S 587 mmHg 95%
    03:00 +14°C° 0 mm 0 m/S 587 mmHg 95%
    04:00 +15°C° 0 mm 1 m/S 587 mmHg 95%
    05:00 +15°C° 0 mm 1 m/S 587 mmHg 95%
    06:00 +15°C° 0 mm 1 m/S 588 mmHg 90%
    07:00 +16°C° 0 mm 1 m/S 588 mmHg 85%
    08:00 +18°C° 0 mm 1 m/S 589 mmHg 81%
    09:00 +19°C° 0 mm 2 m/S 589 mmHg 75%
    10:00 +20°C° 0 mm 2 m/S 589 mmHg 69%
    11:00 +21°C° 0 mm 3 m/S 590 mmHg 63%
    12:00 +22°C° 0.4 mm 3 m/S 589 mmHg 65%
    13:00 +22°C° 0.4 mm 4 m/S 589 mmHg 66%
    14:00 +22°C° 0.4 mm 5 m/S 588 mmHg 67%
    15:00 +21°C° 1.1 mm 5 m/S 588 mmHg 71%
    16:00 +20°C° 1.1 mm 5 m/S 588 mmHg 75%
    17:00 +19°C° 1.1 mm 5 m/S 588 mmHg 78%
    18:00 +18°C° 0.1 mm 4 m/S 588 mmHg 83%
    19:00 +17°C° 0.1 mm 3 m/S 588 mmHg 87%
    20:00 +16°C° 0.1 mm 2 m/S 588 mmHg 92%
    21:00 +15°C° 0 mm 1 m/S 588 mmHg 92%
    22:00 +15°C° 0 mm 1 m/S 588 mmHg 93%
    23:00 +14°C° 0 mm 1 m/S 588 mmHg 94%

    20 August, Dienstag

    Zeit Temperatur Niederschläge Wind Luftdruck Luftfeuchtigkeit
    00:00 +14°C° 0 mm 1 m/S 588 mmHg 94%
    01:00 +14°C° 0 mm 1 m/S 587 mmHg 94%
    02:00 +13°C° 0 mm 1 m/S 587 mmHg 94%
    03:00 +13°C° 0 mm 1 m/S 587 mmHg 93%
    04:00 +13°C° 0 mm 1 m/S 587 mmHg 93%
    05:00 +12°C° 0 mm 0 m/S 587 mmHg 92%
    06:00 +14°C° 0 mm 1 m/S 588 mmHg 86%
    07:00 +15°C° 0 mm 1 m/S 588 mmHg 79%
    08:00 +16°C° 0 mm 1 m/S 589 mmHg 72%
    09:00 +18°C° 0 mm 2 m/S 590 mmHg 64%
    10:00 +20°C° 0 mm 2 m/S 590 mmHg 56%
    11:00 +22°C° 0 mm 3 m/S 591 mmHg 47%
    12:00 +22°C° 0 mm 4 m/S 591 mmHg 48%
    13:00 +23°C° 0 mm 5 m/S 590 mmHg 49%
    14:00 +23°C° 0 mm 6 m/S 590 mmHg 50%
    15:00 +22°C° 0.2 mm 6 m/S 589 mmHg 59%
    16:00 +21°C° 0.2 mm 6 m/S 589 mmHg 67%
    17:00 +19°C° 0.2 mm 6 m/S 589 mmHg 75%
    18:00 +17°C° 0.1 mm 5 m/S 589 mmHg 80%
    19:00 +16°C° 0.1 mm 3 m/S 589 mmHg 86%
    20:00 +14°C° 0.1 mm 2 m/S 588 mmHg 92%
    21:00 +14°C° 0 mm 2 m/S 589 mmHg 92%
    22:00 +14°C° 0 mm 1 m/S 589 mmHg 93%
    23:00 +13°C° 0 mm 1 m/S 589 mmHg 94%

    21 August, Mittwoch

    Zeit Temperatur Niederschläge Wind Luftdruck Luftfeuchtigkeit
    00:00 +14°C° 0 mm 1 m/S 588 mmHg 94%
    01:00 +14°C° 0 mm 1 m/S 588 mmHg 94%
    02:00 +14°C° 0 mm 1 m/S 588 mmHg 94%
    03:00 +14°C° 0 mm 1 m/S 588 mmHg 93%
    04:00 +13°C° 0 mm 1 m/S 588 mmHg 93%
    05:00 +13°C° 0 mm 1 m/S 588 mmHg 93%
    06:00 +14°C° 0 mm 1 m/S 589 mmHg 87%
    07:00 +15°C° 0 mm 1 m/S 590 mmHg 82%
    08:00 +18°C° 0 mm 1 m/S 590 mmHg 76%
    09:00 +18°C° 0 mm 2 m/S 590 mmHg 71%
    10:00 +19°C° 0 mm 2 m/S 591 mmHg 65%
    11:00 +21°C° 0 mm 3 m/S 591 mmHg 59%
    12:00 +21°C° 0.2 mm 3 m/S 590 mmHg 59%
    13:00 +22°C° 0.2 mm 3 m/S 590 mmHg 59%
    14:00 +22°C° 0.2 mm 4 m/S 590 mmHg 59%
    15:00 +21°C° 1.2 mm 4 m/S 589 mmHg 66%
    16:00 +20°C° 1.2 mm 4 m/S 589 mmHg 73%
    17:00 +19°C° 1.2 mm 4 m/S 589 mmHg 80%
    18:00 +18°C° 0.8 mm 3 m/S 589 mmHg 84%
    19:00 +17°C° 0.8 mm 2 m/S 589 mmHg 88%
    20:00 +16°C° 0.8 mm 2 m/S 589 mmHg 92%
    21:00 +16°C° 0.2 mm 1 m/S 589 mmHg 92%
    22:00 +15°C° 0.2 mm 1 m/S 589 mmHg 93%
    23:00 +15°C° 0.2 mm 1 m/S 589 mmHg 93%

    22 August, Donnerstag

    Zeit Temperatur Niederschläge Wind Luftdruck Luftfeuchtigkeit
    00:00 +15°C° 0.1 mm 1 m/S 589 mmHg 93%
    01:00 +15°C° 0.1 mm 1 m/S 589 mmHg 93%
    02:00 +14°C° 0.1 mm 0 m/S 589 mmHg 93%
    03:00 +14°C° 0 mm 0 m/S 588 mmHg 94%
    04:00 +13°C° 0 mm 0 m/S 588 mmHg 94%
    05:00 +13°C° 0 mm 0 m/S 588 mmHg 95%
    06:00 +14°C° 0 mm 0 m/S 589 mmHg 90%
    07:00 +15°C° 0 mm 0 m/S 590 mmHg 85%
    08:00 +17°C° 0 mm 0 m/S 590 mmHg 81%
    09:00 +18°C° 0.4 mm 0 m/S 591 mmHg 74%
    10:00 +22°C° 0.4 mm 1 m/S 591 mmHg 68%
    11:00 +23°C° 0.4 mm 1 m/S 592 mmHg 62%
    12:00 +24°C° 1.5 mm 1 m/S 591 mmHg 62%
    13:00 +24°C° 1.5 mm 2 m/S 591 mmHg 62%
    14:00 +24°C° 1.5 mm 2 m/S 590 mmHg 62%
    15:00 +21°C° 2.9 mm 2 m/S 590 mmHg 70%
    16:00 +20°C° 2.9 mm 2 m/S 589 mmHg 77%
    17:00 +19°C° 2.9 mm 2 m/S 588 mmHg 84%
    18:00 +18°C° 4.8 mm 2 m/S 589 mmHg 87%
    19:00 +17°C° 4.8 mm 2 m/S 589 mmHg 90%
    20:00 +15°C° 4.8 mm 2 m/S 589 mmHg 93%
    21:00 +15°C° 5.2 mm 2 m/S 589 mmHg 93%
    22:00 +15°C° 5.2 mm 1 m/S 589 mmHg 93%
    23:00 +15°C° 5.2 mm 1 m/S 589 mmHg 93%
    Mehr zeigen